Location: Moscow
(55.7500°N, 37.5830°E)
Time: 17:04:39
(UTC+03:00)

FENGYUN 1C DEB - Pass Details

Date: 12 July 2022
Orbit: 590 x 882 km, 98.9° (Epoch: 16 August)

Event Time Altitude Azimuth Distance (km) Brightness Sun altitude
Rises 02:52:06 0° 28° (NNE) 3,305 ? -7.0°
Reaches altitude 10° 02:55:35 10° 52° (NE) 2,427 ? -6.7°
Maximum altitude 02:58:28 14° 85° (E) 2,161 ? -6.5°
Drops below altitude 10° 03:01:24 10° 117° (ESE) 2,492 ? -6.3°
Sets 03:05:03 0° 141° (SE) 3,455 ? -6.0°
